{"data":{"norad_id":38767,"epoch":"2026-05-24T23:41:39.906816Z","epoch_age_seconds":83037,"freshness":"FRESH","line1":"1 38767U 12048K   26144.98726744  .00197703  00000+0  96479-3 0  9994","line2":"2 38767  64.6276 110.8538 0018284 214.6384 145.3582 15.81298189368974","mean_motion":15.81298189,"eccentricity":0.0018284,"inclination_deg":64.6276,"raan_deg":110.8538,"arg_perigee_deg":214.6384,"mean_anomaly_deg":145.3582,"bstar":0.00096479,"rev_number":36897,"period_min":91.064418464341,"perigee_km":314.50921592488,"apogee_km":339.02771422957,"semimajor_km":6704.9054650772,"source":"CELESTRAK","updated_at":"2026-05-25T13:38:25.490321Z"}}